Regional Weather Roundup
Issued by NWS

Home | Current Version | Previous Version | Text Only | Print | Product List | Glossary On
Versions: 1 2 3 4 5 6 7 8 9 10 11 12 13 14 15 16 17 18 19 20 21 22 23 24 25 26 27 28 29 30 31 32 33 34 35 36 37 38 39 40 41 42 43 44 45 46 47 48 49 50
000
ASUS44 KMEG 280610
RWRTN
TENNESSEE HOURLY STATE WEATHER ROUNDUP
NATIONAL WEATHER SERVICE MEMPHIS TN
1200 AM CST FRI NOV 28 2014

TNZ002-004-019-021-049-052-054-088>092-280700-
WEST TENNESSEE

CITY           SKY/WX    TMP DP  RH WIND       PRES   REMARKS
MEMPHIS INTL   PTCLDY    34  26  72 SE3       30.45F
NWS MEMPHIS      N/A     31 N/A N/A MISG        N/A
JACKSON        CLEAR     28  23  81 CALM      30.46F
DYERSBURG      CLEAR     28  16  59 SE5       30.47F WCI  23
UNION CITY     CLEAR     23  21  93 CALM      30.45S
PARIS          CLEAR     21  19  93 CALM      30.44F
HUNTINGDON     CLEAR     23  20  89 CALM      30.46S
LEXINGTON      CLEAR     23  21  93 CALM      30.44F
SAVANNAH       CLEAR     25  21  86 CALM      30.46F
$$

TNZ008-025-027-028-033-062-065-066-280700-
NORTH MIDDLE TENNESSEE

CITY           SKY/WX    TMP DP  RH WIND       PRES   REMARKS
NASHVILLE      CLEAR     27  20  75 N5        30.46F WCI  22
CLARKSVILLE    CLEAR     28  23  81 CALM      30.45F
COOKEVILLE     MOCLDY    28  21  74 CALM      30.41S
CROSSVILLE     CLOUDY    26  16  65 N8        30.36F WCI  18
$$

TNZ061-075-076-078-094-096-097-280700-
SOUTH MIDDLE TENNESSEE

CITY           SKY/WX    TMP DP  RH WIND       PRES   REMARKS
FAYETTEVILLE   CLEAR     27  19  74 MISG      30.43S
TULLAHOMA      CLEAR     25  18  74 CALM      30.42F
WINCHESTER     PTCLDY    25  19  80 CALM      30.43F
MCMINNVILLE    CLEAR     25  18  74 CALM      30.42F
COLUMBIA       CLEAR     25  25 100 CALM      30.42F
SHELBYVILLE    CLEAR     25  21  86 CALM      30.45R
$$

TNZ017-018-042-046-047-280700-
NORTHEAST TENNESSEE

CITY           SKY/WX    TMP DP  RH WIND       PRES   REMARKS
TRI CITIES     CLOUDY    30  19  63 W8        30.33F WCI  22
ELIZABETHTON   CLOUDY    27  19  74 W8        30.31F WCI  18
$$

TNZ012-013-036-069-073-074-280700-
CENTRAL EAST TENNESSEE

CITY           SKY/WX    TMP DP  RH WIND       PRES   REMARKS
KNOXVILLE      CLOUDY    31  24  75 W5        30.39F WCI  26
OAK RIDGE      CLOUDY    32  22  66 W6        30.41F WCI  26
GATLINBURG     CLOUDY    28  21  74 CALM      30.39S
MORRISTOWN     MOCLDY    30  21  69 VRB6      30.36F WCI  24
$$

TNZ083-085-099-280700-
SOUTHEAST TENNESSEE

CITY           SKY/WX    TMP DP  RH WIND       PRES   REMARKS
CHATTANOOGA    CLOUDY    33  20  58 N10       30.43F WCI  25
$$

SKY/WX REPORTED AS FAIR MEANS FEW OR NO CLOUDS BELOW
12 THOUSAND FEET.



USA.gov is the U.S. government's official web portal to all federal, state and local government web resources and services.